Location: Schommer Observatory
(40.5200°N, 74.4500°W)
Time: 09:51:28
(UTC-05:00)

ISS - Visible Passes

Search period start: 18 December 2017 00:00
Search period end: 28 December 2017 00:00
Orbit: 402 x 406 km, 51.6° (Epoch: 19 December)

Date Brightness Start Highest point End Pass type
(mag) Time Alt. Az. Time Alt. Az. Time Alt. Az.
18 Dec -1.7 17:08:38 10° WNW 17:11:36 31° SW 17:14:33 10° SSE visible
20 Dec -0.3 17:01:37 10° W 17:03:15 13° SW 17:04:53 10° SSW visible
25 Dec -0.6 06:11:46 10° S 06:13:50 16° SE 06:15:55 10° E visible
27 Dec -2.3 06:02:17 10° SSW 06:05:21 38° SE 06:08:25 10° ENE visible
